Zurück zum Katalog

INMARSAT 5-F3

AktivKommunikationGEO
NORAD 40882·PAYLOAD·🇮🇲 IM

Gestartet Aug 28, 2015 von Baikonur Cosmodrome

Loading…

TLE

AktuellSource: Space-Track

Epoche: Sep 14, 2026, 14:56 UTC

1 40882U 15042A   26257.62269370  .00000042  00000-0  00000-0 0  9997
2 40882   0.0198 144.6165 0001195 232.0905  20.6151  1.00270445 40468

Verfolge INMARSAT 5-F3 in Echtzeit mit AllMySat

Download on the App Store